Temp
19 18 18 18 23 24 24 24 24 24 23 23 21 21 23 22 23 23 19 19 18 16 16 16 17 17 17 17 18 18 17 17 17 16 17 17 16 17 15 15 15 14 14 14 14 15 15 15 14
18 18 18 21 24 24 25 24 23 24 23 21 20 20 21 22 20 19 18 20 19 17 15 15 17 17 17 17 17 17 17 17 17 16 17 16 15 17 17 15 15 14 15 15 15 15 15 14 15
18 18 21 24 24 24 24 24 24 24 22 21 22 20 21 23 19 19 19 19 18 18 15 15 16 16 16 17 17 17 17 17 17 16 17 16 16 17 16 15 14 14 15 15 14 14 14 14 14
18 19 20 23 24 24 24 24 23 23 22 20 21 22 21 20 19 17 19 18 18 17 15 14 14 15 16 17 17 17 17 17 16 17 17 16 16 16 15 15 14 15 15 15 14 14 14 14 14
18 21 23 23 24 24 24 23 22 23 23 22 20 23 21 19 19 18 18 18 15 15 16 15 14 14 15 16 17 17 17 16 16 16 16 16 16 16 15 14 14 15 15 14 13 14 14 14 14
21 21 23 24 24 23 23 22 22 22 22 22 20 21 22 19 19 16 17 16 15 15 14 15 14 12 13 15 16 16 16 16 16 16 16 16 16 15 14 14 14 14 14 14 13 13 13 13 13
22 23 24 24 23 23 23 22 22 23 23 23 20 21 22 18 16 18 17 16 16 15 15 15 14 11 11 13 15 16 16 16 16 16 16 17 16 15 14 14 13 13 13 13 13 13 13 13 13
21 23 23 23 23 23 23 22 22 22 23 19 19 22 23 19 18 17 16 15 16 14 14 14 13 13 11 13 13 13 14 15 16 15 16 16 15 15 14 13 13 13 13 13 12 12 12 12 13
19 22 23 23 23 23 23 22 22 20 21 20 20 20 19 16 17 17 14 13 13 12 13 13 13 13 13 12 13 13 13 13 15 15 15 14 14 14 13 12 13 13 13 12 12 12 12 12 12
21 22 24 24 24 23 23 22 22 22 23 22 21 20 17 15 15 15 15 14 13 12 12 11 12 13 14 14 14 14 13 12 13 15 13 12 13 12 12 13 13 13 13 12 12 12 12 12 12
21 22 24 23 22 22 22 22 22 22 23 24 23 22 19 16 15 15 14 13 13 12 12 12 12 12 13 13 14 13 13 11 13 14 14 12 12 12 11 12 12 13 12 12 12 11 11 10 10
20 21 22 22 22 21 22 22 22 22 23 23 20 20 18 16 16 15 13 13 12 12 11 11 12 11 12 12 12 12 11 11 12 13 12 12 12 12 11 11 11 12 12 11 10 10 10 10 10
19 22 21 21 21 21 21 21 22 22 22 22 20 17 17 16 16 13 12 11 11 11 11 11 11 11 12 12 11 12 12 11 11 12 12 11 12 11 12 11 11 11 11 10 10 10 10 12 11
22 20 21 21 21 21 21 22 22 22 22 20 17 17 16 16 15 13 13 11 11 11 11 11 11 11 11 11 11 11 11 12 11 12 12 11 11 12 13 11 11 11 11 11 11 10 11 12 10
19 20 21 22 21 22 22 22 23 22 21 20 18 17 16 16 15 14 13 11 11 11 11 11 11 11 11 12 11 11 11 11 11 11 11 11 13 12 13 13 11 11 11 10 10 11 10 11 10
19 20 20 22 22 22 21 23 24 22 21 22 21 18 16 15 14 13 12 11 11 11 11 11 11 11 11 11 11 11 11 11 11 10 11 11 11 12 12 13 10 11 11 11 12 10 12 11 10
20 19 21 22 22 23 21 23 24 21 20 21 21 20 18 16 13 12 11 10 11 10 10 10 11 11 10 10 13 11 10 10 11 10 10 11 10 12 14 12 10 12 13 12 12 11 12 11 10
20 20 20 20 23 21 22 22 24 23 22 22 22 21 19 17 15 13 11 11 11 10 10 10 10 11 10 10 10 10 10 10 10 10 10 10 10 10 13 12 12 12 12 12 11 11 11 10 10
21 20 20 22 22 20 21 22 23 24 24 23 22 21 20 18 16 13 10 11 11 10 10 10 10 11 10 10 10 10 10 10 11 10 10 10 9 11 12 12 12 12 12 11 12 11 11 11 10
19 18 19 21 22 20 21 22 23 24 24 23 23 22 20 18 15 13 10 11 11 10 10 10 10 10 10 10 10 10 10 10 10 10 9 9 10 11 12 12 12 11 11 11 11 11 10 11 11
18 18 19 19 21 21 20 20 22 24 23 22 21 21 20 19 16 14 10 11 11 10 9 10 11 10 10 10 10 10 10 10 10 9 9 9 10 11 12 12 12 12 12 11 11 11 11 11 11
16 19 18 18 19 19 20 20 22 23 23 24 24 21 20 19 16 15 12 10 11 10 9 10 10 9 9 10 10 10 10 10 9 9 9 9 10 10 11 11 11 11 11 11 11 11 12 11 10
17 18 18 18 19 19 20 19 21 23 22 23 24 24 20 18 17 15 14 11 12 10 10 10 10 9 9 9 10 10 9 9 9 9 9 9 10 10 10 10 11 10 10 11 11 11 11 11 10
18 17 18 18 18 17 18 19 21 23 23 24 24 22 20 18 17 16 14 13 11 9 9 10 10 9 9 9 9 9 10 9 9 9 10 10 10 10 10 10 11 10 10 11 11 11 11 11 10
16 17 16 16 16 17 20 19 21 22 23 23 24 23 20 18 17 16 14 13 12 10 9 9 10 10 9 9 10 9 9 10 9 9 9 9 10 10 10 10 10 10 11 10 11 11 11 11 10
15 16 16 16 18 19 19 18 21 23 24 23 22 22 21 18 17 16 15 14 13 10 9 9 9 10 10 10 10 10 8 9 10 9 9 10 10 11 11 11 11 11 10 10 10 9 10 10 10
17 15 17 17 18 16 20 20 21 22 22 23 23 23 21 19 17 16 16 14 13 11 10 9 9 9 9 9 9 9 10 10 9 9 9 10 9 10 11 11 11 10 9 9 10 9 9 9 9
18 19 15 17 15 16 19 20 20 21 22 24 23 23 22 20 18 17 16 14 13 12 12 10 9 9 8 8 8 9 8 8 8 9 9 9 9 9 9 9 8 9 9 9 9 8 8 8 8
16 16 16 18 18 17 17 20 21 21 22 23 23 23 22 20 18 17 17 15 13 12 12 13 10 9 9 9 8 8 8 8 8 8 9 9 9 9 8 8 8 8 9 9 8 8 9 8 9
15 16 17 16 16 17 17 19 22 22 22 23 23 22 21 20 19 18 16 15 14 12 12 16 15 13 11 10 10 9 9 9 8 9 9 9 9 9 9 8 8 9 9 9 9 9 11 11 11
Height
1512 1513 1512 1513 1508 1497 1494 1495 1498 1497 1497 1499 1500 1499 1495 1495 1492 1493 1488 1489 1490 1492 1495 1495 1496 1498 1500 1500 1501 1502 1508 1511 1514 1519 1521 1522 1526 1527 1533 1535 1536 1540 1543 1545 1545 1546 1549 1550 1552
1512 1513 1513 1509 1499 1493 1487 1494 1496 1494 1497 1501 1500 1498 1497 1493 1493 1492 1490 1488 1490 1491 1495 1495 1494 1495 1499 1502 1502 1502 1507 1509 1513 1518 1520 1523 1527 1529 1531 1536 1537 1542 1543 1546 1548 1549 1551 1553 1554
1512 1512 1510 1498 1493 1490 1490 1491 1491 1494 1498 1500 1497 1497 1494 1489 1491 1490 1487 1488 1489 1490 1492 1494 1491 1493 1495 1497 1500 1503 1505 1508 1512 1516 1519 1523 1527 1529 1530 1536 1539 1543 1544 1546 1550 1551 1553 1556 1556
1514 1514 1510 1498 1489 1488 1489 1489 1492 1493 1496 1498 1497 1495 1493 1489 1489 1488 1486 1488 1489 1488 1489 1491 1488 1489 1492 1494 1500 1503 1505 1507 1512 1515 1517 1522 1527 1529 1532 1538 1541 1544 1547 1548 1553 1553 1556 1558 1558
1513 1510 1497 1493 1489 1490 1491 1493 1494 1491 1492 1494 1496 1489 1489 1486 1485 1485 1485 1487 1487 1486 1485 1487 1481 1487 1488 1491 1494 1502 1503 1506 1510 1514 1518 1523 1528 1529 1532 1539 1543 1545 1548 1551 1554 1556 1559 1561 1561
1508 1507 1497 1489 1486 1490 1491 1493 1494 1492 1491 1491 1493 1489 1485 1482 1482 1484 1484 1485 1484 1482 1480 1481 1479 1472 1467 1489 1490 1497 1502 1505 1509 1513 1517 1522 1528 1530 1534 1538 1543 1547 1550 1553 1556 1559 1561 1564 1563
1504 1498 1491 1488 1486 1488 1488 1492 1492 1487 1486 1487 1489 1485 1481 1481 1480 1482 1483 1483 1482 1479 1477 1478 1477 1473 1470 1481 1487 1493 1497 1502 1507 1513 1518 1521 1528 1531 1535 1539 1544 1548 1552 1555 1558 1561 1564 1566 1566
1504 1499 1492 1488 1485 1485 1486 1489 1489 1488 1484 1485 1486 1480 1477 1479 1477 1479 1481 1480 1480 1478 1476 1473 1472 1475 1480 1479 1486 1496 1496 1503 1506 1512 1516 1522 1528 1530 1535 1539 1544 1549 1553 1557 1560 1563 1565 1567 1568
1505 1496 1486 1483 1485 1482 1485 1487 1487 1487 1485 1484 1481 1478 1479 1475 1474 1476 1479 1480 1479 1478 1477 1473 1472 1471 1476 1483 1489 1494 1492 1500 1505 1511 1518 1521 1526 1531 1537 1541 1545 1550 1554 1558 1561 1564 1567 1568 1571
1499 1489 1479 1479 1481 1481 1483 1485 1484 1484 1478 1478 1476 1476 1475 1473 1473 1474 1475 1478 1481 1478 1474 1475 1474 1475 1478 1483 1488 1487 1493 1501 1506 1510 1519 1524 1525 1530 1540 1542 1546 1551 1556 1559 1563 1566 1569 1570 1572
1492 1485 1477 1481 1483 1484 1481 1480 1480 1479 1473 1469 1467 1469 1471 1471 1471 1471 1471 1473 1475 1476 1474 1473 1474 1476 1480 1483 1484 1489 1496 1503 1508 1512 1518 1523 1526 1530 1535 1542 1546 1551 1556 1560 1563 1567 1570 1573 1574
1490 1485 1481 1479 1480 1483 1480 1477 1475 1474 1471 1469 1469 1468 1468 1467 1468 1471 1469 1468 1471 1471 1471 1472 1474 1476 1479 1482 1486 1491 1494 1502 1506 1511 1518 1521 1524 1527 1532 1541 1543 1549 1554 1559 1562 1566 1571 1572 1575
1487 1481 1479 1477 1478 1478 1479 1475 1473 1468 1468 1467 1467 1465 1466 1465 1464 1468 1467 1464 1465 1467 1469 1469 1471 1475 1477 1481 1484 1486 1491 1497 1502 1508 1514 1520 1521 1525 1532 1540 1543 1547 1555 1559 1563 1566 1567 1569 1574
1476 1479 1476 1474 1473 1474 1474 1468 1467 1461 1463 1463 1462 1462 1462 1461 1459 1463 1466 1465 1461 1462 1465 1468 1469 1470 1473 1476 1480 1483 1487 1493 1497 1504 1509 1516 1519 1522 1528 1536 1542 1546 1554 1558 1562 1564 1567 1570 1572
1480 1478 1472 1469 1468 1467 1467 1460 1456 1458 1460 1460 1459 1459 1459 1458 1456 1458 1462 1462 1460 1460 1460 1462 1463 1466 1469 1470 1474 1478 1482 1486 1494 1501 1506 1512 1517 1521 1525 1533 1541 1544 1551 1555 1560 1562 1565 1569 1572
1477 1472 1469 1457 1460 1462 1466 1451 1447 1454 1457 1454 1453 1455 1455 1456 1456 1455 1456 1456 1457 1459 1459 1459 1460 1462 1462 1461 1463 1467 1473 1478 1486 1495 1501 1508 1515 1522 1525 1532 1540 1543 1547 1552 1556 1560 1562 1567 1572
1468 1466 1457 1457 1457 1456 1459 1446 1441 1451 1452 1450 1449 1449 1451 1452 1452 1453 1451 1451 1453 1456 1457 1458 1459 1459 1458 1453 1453 1452 1459 1471 1480 1490 1496 1503 1512 1520 1525 1531 1537 1541 1545 1550 1553 1558 1561 1565 1570
1459 1458 1459 1458 1448 1456 1449 1447 1440 1442 1444 1445 1443 1444 1445 1447 1448 1450 1449 1447 1450 1453 1455 1456 1458 1457 1457 1453 1449 1448 1451 1464 1476 1483 1493 1498 1509 1517 1523 1529 1534 1539 1543 1548 1552 1556 1561 1564 1567
1451 1455 1452 1446 1449 1454 1448 1443 1438 1436 1435 1437 1438 1439 1440 1442 1445 1446 1445 1444 1447 1451 1453 1454 1456 1456 1456 1454 1454 1453 1455 1465 1473 1481 1489 1498 1508 1516 1521 1528 1532 1538 1542 1547 1551 1556 1559 1561 1564
1456 1458 1453 1446 1447 1452 1446 1440 1434 1432 1429 1430 1431 1433 1434 1438 1440 1442 1442 1442 1444 1449 1451 1452 1454 1457 1457 1458 1459 1460 1462 1467 1475 1484 1492 1499 1507 1515 1520 1526 1531 1537 1541 1546 1549 1553 1557 1557 1561
1453 1453 1452 1450 1445 1444 1444 1438 1429 1425 1427 1427 1429 1429 1429 1431 1434 1439 1439 1438 1441 1445 1449 1451 1452 1455 1457 1460 1463 1466 1470 1475 1481 1486 1493 1499 1505 1512 1519 1525 1531 1535 1540 1544 1548 1551 1553 1555 1558
1451 1446 1449 1449 1449 1447 1439 1439 1424 1417 1419 1417 1418 1423 1425 1427 1430 1434 1436 1435 1437 1442 1447 1449 1451 1453 1457 1460 1463 1467 1470 1474 1481 1487 1493 1498 1505 1512 1518 1524 1529 1534 1538 1541 1544 1548 1550 1553 1554
1446 1445 1444 1446 1443 1441 1437 1442 1423 1414 1417 1411 1410 1412 1419 1423 1426 1428 1434 1432 1434 1439 1443 1446 1449 1451 1455 1459 1462 1465 1470 1476 1480 1488 1494 1499 1505 1510 1516 1522 1526 1531 1535 1539 1542 1545 1547 1549 1551
1441 1443 1442 1440 1439 1443 1436 1434 1415 1408 1408 1405 1406 1410 1415 1419 1423 1424 1431 1432 1434 1437 1441 1443 1447 1449 1453 1458 1462 1466 1470 1474 1479 1485 1491 1497 1502 1508 1514 1520 1524 1528 1532 1536 1538 1540 1542 1544 1544
1443 1441 1444 1446 1444 1437 1417 1430 1413 1403 1403 1403 1405 1405 1412 1415 1418 1421 1426 1428 1431 1434 1437 1441 1444 1447 1451 1456 1460 1465 1471 1475 1479 1485 1490 1496 1500 1504 1509 1515 1520 1525 1528 1531 1533 1534 1536 1539 1539
1436 1435 1436 1440 1427 1419 1418 1421 1405 1398 1398 1400 1404 1405 1407 1411 1414 1417 1420 1425 1426 1430 1434 1438 1441 1445 1448 1453 1459 1464 1470 1474 1480 1484 1490 1492 1498 1503 1507 1511 1516 1519 1521 1526 1529 1531 1531 1533 1533
1427 1435 1428 1431 1423 1431 1410 1406 1402 1397 1398 1398 1399 1400 1402 1406 1409 1413 1415 1421 1423 1426 1431 1435 1439 1442 1446 1450 1456 1461 1466 1471 1477 1482 1486 1490 1494 1500 1504 1507 1510 1513 1517 1520 1522 1523 1524 1526 1527
1419 1418 1434 1428 1436 1428 1409 1405 1403 1397 1395 1390 1392 1394 1396 1400 1403 1408 1411 1415 1421 1422 1427 1433 1438 1441 1445 1448 1452 1457 1462 1467 1473 1477 1480 1484 1489 1494 1499 1502 1504 1508 1510 1513 1516 1517 1518 1519 1520
1423 1423 1421 1415 1413 1418 1415 1400 1390 1394 1391 1390 1389 1390 1393 1395 1398 1402 1408 1411 1417 1419 1421 1426 1432 1437 1441 1445 1449 1453 1457 1461 1466 1470 1474 1479 1484 1488 1492 1496 1498 1501 1504 1506 1509 1510 1510 1509 1509
1421 1414 1414 1418 1416 1410 1411 1404 1390 1391 1391 1390 1390 1390 1392 1393 1396 1399 1404 1408 1411 1416 1415 1419 1425 1430 1435 1439 1444 1448 1453 1456 1460 1463 1468 1473 1477 1481 1485 1489 1491 1494 1497 1499 1499 1500 1499 1500 1499
Wind_Speed
6 3 1 2 5 6 3 4 3 5 4 2 4 7 10 13 8 9 7 8 5 14 20 28 32 30 34 27 36 36 38 36 36 35 31 29 30 24 24 25 22 23 21 20 20 20 21 22 22
6 4 2 4 6 7 5 2 5 2 4 6 9 9 9 10 9 9 8 11 8 7 19 24 36 34 30 31 39 40 40 38 37 36 33 30 30 22 16 24 23 22 21 20 21 22 23 23 23
6 5 7 4 4 5 3 3 2 4 6 9 5 6 7 6 7 6 10 10 9 11 15 26 37 37 32 37 40 41 39 37 39 36 32 31 29 24 25 25 24 23 21 23 23 25 25 24 24
4 4 4 8 8 3 4 1 2 5 2 5 6 10 7 12 5 8 13 11 11 12 14 25 38 38 38 37 38 41 41 38 40 37 33 30 30 27 27 25 25 23 23 26 27 27 26 25 24
5 5 7 11 8 3 4 2 3 6 3 6 7 13 10 10 12 17 14 13 11 12 15 24 33 38 40 41 38 43 41 42 41 37 33 31 29 28 28 28 27 24 25 29 28 27 26 25 24
8 5 8 9 11 6 4 3 5 7 6 6 6 15 17 14 15 10 13 13 15 15 18 19 31 23 26 37 41 44 44 43 39 36 34 28 29 29 30 30 27 26 29 29 27 26 25 24 24
11 7 11 10 9 8 7 2 8 11 11 12 10 9 13 7 9 12 12 12 14 15 13 15 14 24 49 35 37 42 47 43 40 36 33 29 28 31 32 30 29 28 29 28 26 25 23 21 21
10 6 9 10 10 14 6 4 8 11 12 3 6 9 13 5 8 10 9 9 12 12 12 10 11 14 34 30 30 30 33 40 42 37 34 32 30 32 34 32 29 28 29 28 26 24 22 21 19
8 8 11 12 12 12 6 5 5 6 11 9 11 16 12 11 15 13 6 3 8 10 6 6 12 5 24 29 27 29 33 37 38 36 36 35 37 35 34 32 30 29 28 27 26 23 21 20 18
13 11 14 6 9 9 10 8 12 8 12 15 17 18 16 14 11 9 8 5 6 6 10 8 19 21 25 32 29 35 36 27 35 35 36 36 39 35 29 32 31 29 26 26 26 23 20 18 18
13 17 12 10 11 12 16 15 12 14 17 18 17 19 11 13 9 9 9 8 7 6 9 7 12 23 32 31 28 28 39 34 35 38 38 36 37 36 33 35 32 29 26 29 27 24 19 15 14
14 19 20 15 15 14 15 19 17 20 25 23 19 14 9 10 8 7 9 10 9 9 9 11 11 22 27 26 33 33 33 40 38 36 41 39 40 39 36 32 31 31 29 29 27 24 17 16 13
17 18 19 19 19 19 17 22 22 27 27 24 18 11 11 9 5 5 7 11 10 9 9 9 12 15 21 30 35 39 40 40 41 41 43 40 41 40 41 32 30 28 26 28 25 21 19 16 15
8 13 18 17 18 19 17 25 22 29 19 14 13 15 12 8 5 5 6 7 9 7 8 9 11 13 15 20 32 37 46 49 43 44 43 41 43 44 45 32 28 28 27 26 23 21 19 17 15
14 15 17 19 20 20 18 22 22 26 9 12 13 14 12 9 6 5 6 7 8 7 8 11 12 13 16 21 27 34 42 50 52 45 43 44 43 47 41 39 28 27 26 25 23 23 19 17 15
10 14 15 6 8 12 11 16 7 6 7 13 12 13 12 10 8 7 5 6 10 10 10 11 9 9 10 21 30 40 44 61 57 50 46 43 45 44 36 39 29 27 28 26 26 22 21 18 14
14 15 15 11 10 10 13 15 5 6 9 14 12 14 13 11 10 9 6 6 10 9 10 12 10 6 7 17 19 28 53 57 49 56 45 45 46 43 39 40 29 33 30 29 26 23 21 19 15
16 18 15 14 5 10 14 17 16 11 9 16 13 13 14 13 11 10 7 7 10 10 9 11 7 6 6 11 16 33 54 52 54 53 54 46 44 44 47 42 37 34 31 29 24 23 22 17 13
15 14 15 12 2 7 13 17 16 18 13 14 13 14 15 14 10 10 8 7 10 10 9 11 6 7 8 10 27 35 44 49 45 52 46 38 44 47 45 41 37 34 31 28 28 24 23 19 18
21 19 17 16 14 11 17 17 14 16 16 12 11 14 15 13 13 12 10 8 14 12 11 11 9 10 16 11 24 36 37 37 38 39 35 31 41 45 44 42 38 34 27 28 29 27 21 22 22
21 22 18 19 14 13 19 20 20 17 12 10 11 13 13 16 16 16 14 11 15 15 13 15 13 14 17 18 26 29 29 30 33 33 34 34 34 42 44 40 34 32 30 29 27 26 23 23 23
21 18 20 17 15 11 3 12 14 11 16 17 18 15 15 15 16 17 17 14 15 18 13 14 14 15 20 23 28 30 32 35 36 33 34 38 38 34 34 37 34 30 30 28 25 24 24 24 25
17 15 17 16 16 16 19 10 11 10 12 12 13 15 16 16 19 19 18 15 14 18 18 17 14 16 22 25 26 30 34 39 37 34 35 39 37 41 38 29 27 26 26 23 23 24 32 29 25
7 13 10 8 9 13 17 13 10 13 11 6 4 2 12 16 19 19 18 17 16 17 17 18 18 17 22 24 24 27 35 42 38 39 33 36 39 40 44 43 37 32 28 30 29 29 33 33 35
14 9 6 8 7 8 7 12 16 7 10 11 11 10 9 15 21 22 23 21 20 20 20 20 20 20 24 27 26 29 31 37 40 36 33 31 39 40 41 40 39 37 40 37 36 33 34 35 35
20 17 7 9 10 7 9 8 11 9 11 11 8 6 8 15 21 25 25 23 22 22 22 21 22 24 25 28 26 28 26 35 33 29 30 38 39 40 41 42 40 43 38 39 36 34 33 34 35
13 16 19 18 14 7 7 7 8 9 10 10 12 5 10 15 20 25 26 24 23 23 24 24 23 24 26 28 31 31 27 35 35 27 29 33 31 33 39 37 36 34 36 35 35 33 31 30 35
19 4 8 11 9 15 12 13 7 9 11 9 8 12 7 14 20 25 27 27 24 23 23 24 24 25 25 27 30 33 31 32 29 30 31 32 29 28 26 28 31 32 34 34 32 32 32 31 34
13 16 13 9 12 11 11 9 9 13 11 9 8 7 5 12 19 23 26 26 25 24 25 27 28 27 27 27 28 29 29 30 33 33 36 37 37 34 32 32 31 32 35 35 36 37 38 36 40
9 8 18 13 17 10 13 13 1 12 9 6 11 6 2 6 15 18 22 25 27 27 27 28 31 32 30 28 28 29 28 30 32 36 35 36 37 37 37 35 33 33 34 37 38 44 48 47 46
Wind_Direction
164 174 180 251 234 243 173 157 323 248 233 262 295 275 308 307 294 317 312 307 238 209 196 205 199 196 197 207 194 191 186 183 181 178 172 169 164 157 160 158 153 155 151 147 146 141 138 131 129
168 172 222 246 254 231 135 117 225 282 285 291 281 262 259 278 261 267 287 285 271 236 212 205 207 203 205 205 198 192 188 185 180 177 175 169 164 161 170 164 159 161 156 147 143 138 134 133 129
173 179 251 247 242 260 250 163 288 324 276 252 270 258 289 271 256 246 256 280 269 266 226 213 215 209 202 202 197 194 191 188 183 180 176 170 167 169 168 169 167 163 153 146 143 138 134 131 128
186 217 224 244 218 198 248 215 328 287 272 237 269 269 253 254 254 248 266 282 279 266 241 217 218 204 201 193 192 194 193 188 186 183 177 174 172 171 169 170 167 162 156 147 141 134 132 132 129
203 245 240 241 230 242 234 304 324 296 287 258 233 271 265 278 259 265 268 283 282 273 264 239 228 212 205 200 196 199 193 190 187 182 178 174 174 173 170 170 166 163 155 146 141 136 133 129 127
206 270 244 237 205 204 245 267 295 274 280 269 254 270 275 257 278 258 268 285 276 266 254 245 244 255 210 201 196 197 192 190 188 184 180 178 178 174 171 169 164 159 153 148 142 140 135 130 125
251 236 267 275 244 226 222 221 263 284 277 265 248 263 283 268 257 273 267 283 274 263 253 240 263 253 236 202 200 195 192 189 186 184 182 182 182 175 171 166 161 161 156 152 148 143 134 129 124
245 260 255 239 237 234 182 271 280 283 291 286 220 262 277 265 263 290 285 284 274 264 256 247 230 274 219 216 185 192 194 190 185 184 185 179 183 175 172 167 164 162 158 157 150 143 138 132 127
217 241 249 247 235 236 189 276 301 286 268 258 248 264 279 257 281 292 291 257 279 278 253 236 193 161 178 183 189 192 202 188 186 184 187 177 174 170 169 166 163 161 160 158 156 151 144 136 130
220 235 252 273 252 247 268 259 292 271 264 266 265 276 262 265 274 278 289 271 227 267 290 264 197 182 198 205 230 237 224 189 186 186 183 171 171 171 166 168 162 162 163 164 163 158 149 143 143
220 247 258 240 252 239 277 277 279 274 277 280 303 303 262 251 259 277 282 287 291 261 251 240 211 209 204 219 206 204 207 196 191 188 184 176 167 163 175 165 161 162 165 168 167 164 157 159 156
243 242 261 251 263 257 261 273 270 272 274 297 295 285 254 243 262 274 280 285 278 278 263 225 210 202 206 208 203 201 192 193 190 188 178 179 170 171 170 163 160 162 162 169 170 168 171 165 165
240 255 256 255 256 254 266 265 270 276 279 286 275 265 258 250 251 270 284 281 274 271 256 228 214 212 209 211 205 208 203 199 188 188 183 181 175 171 167 165 161 161 167 168 171 175 174 168 174
260 259 259 259 252 250 257 266 266 267 280 276 252 251 241 231 228 252 273 272 272 272 262 218 208 214 217 217 211 207 208 195 192 186 187 183 182 177 174 169 166 165 173 174 176 175 173 177 173
254 260 258 251 255 257 268 265 249 263 261 269 257 249 238 233 229 240 259 253 249 248 246 242 237 229 232 233 227 218 215 203 193 195 191 191 192 182 177 179 173 172 173 172 172 174 171 178 178
243 242 256 236 244 226 223 269 186 213 235 286 259 247 244 242 241 236 237 234 236 234 234 234 234 244 249 252 247 232 211 204 208 197 195 196 194 184 181 183 179 173 175 176 182 176 178 182 182
235 255 239 256 214 247 221 260 152 208 273 286 271 251 244 238 232 242 237 229 227 233 234 222 231 252 272 257 250 231 212 205 205 196 199 189 188 185 188 186 183 183 181 186 186 184 186 192 188
234 234 252 260 209 231 236 251 267 259 267 277 272 249 243 237 233 237 224 225 224 239 228 210 217 239 225 186 194 181 177 180 190 198 196 187 186 189 190 189 191 186 186 192 188 191 192 190 188
271 262 252 260 285 258 254 269 269 272 269 267 255 244 244 235 222 214 215 220 205 225 217 204 208 222 214 169 148 149 153 169 157 178 184 183 186 189 188 193 195 191 193 193 197 196 197 200 201
246 249 252 261 265 272 270 274 270 271 269 270 261 241 240 225 204 208 205 201 201 222 208 200 204 209 190 182 160 165 168 164 177 182 180 178 189 190 193 199 198 196 197 202 202 204 200 212 217
239 244 251 254 263 260 270 273 263 253 242 237 251 253 239 226 202 202 201 199 201 211 216 196 204 215 195 185 169 164 172 179 182 182 176 182 187 195 199 204 204 204 209 211 211 216 221 229 228
245 232 251 263 257 261 161 278 286 249 262 259 255 236 239 224 203 197 197 194 199 208 201 195 207 205 202 192 188 190 189 186 173 180 189 186 189 191 202 209 205 209 212 211 220 221 237 235 239
246 262 252 252 256 257 252 255 268 248 256 252 250 240 231 217 204 190 198 189 198 202 208 203 201 196 200 195 201 194 187 176 180 182 192 194 191 194 201 205 204 207 216 221 229 234 240 243 238
223 235 234 237 248 244 242 239 255 244 244 248 224 255 207 210 204 187 194 181 184 193 202 206 201 198 196 195 196 195 190 188 187 187 196 197 200 203 210 212 222 222 221 222 231 239 250 251 254
227 208 212 222 213 244 189 215 241 232 257 262 284 263 215 210 200 190 191 185 184 191 195 200 201 195 191 194 196 198 201 197 197 194 203 191 197 202 203 211 216 218 225 232 235 246 253 256 260
201 212 221 226 235 241 176 224 233 242 259 250 255 257 209 203 200 199 193 193 188 191 198 199 198 200 199 205 205 197 201 204 206 203 201 202 200 203 206 210 224 241 239 229 237 239 250 256 260
196 217 235 262 264 269 235 215 273 240 240 238 254 242 229 213 202 201 194 199 191 193 199 199 198 202 203 202 206 205 206 208 207 205 204 206 208 215 224 229 234 231 228 235 243 248 251 255 258
244 216 193 223 243 243 237 240 248 210 234 239 230 248 235 210 200 199 198 197 199 195 199 203 201 200 202 202 202 206 208 209 210 213 212 212 214 220 224 228 229 231 235 239 245 249 252 255 260
206 234 242 274 233 255 262 258 182 240 254 276 313 258 249 218 200 197 198 195 201 197 198 208 204 203 201 200 204 205 208 210 212 215 219 222 225 227 231 231 236 238 235 238 245 250 256 259 266
307 263 226 235 237 230 254 258 210 229 264 269 312 280 258 207 193 192 198 195 198 203 198 210 213 212 210 207 206 209 210 212 215 218 219 222 226 230 235 237 237 236 238 242 245 252 258 264 267